Regional Weather Roundup
Issued by NWS San Angelo, TX

Home | Current Version | Previous Version | Text Only | Print | Product List | Glossary On
Versions: 1 2 3 4 5 6 7 8 9 10 11 12 13 14 15 16 17 18 19 20 21 22 23 24 25 26 27 28 29 30 31 32 33 34 35 36 37 38 39 40 41 42 43 44 45 46 47 48 49 50
000
ASUS44 KSJT 280710
RWRSJT
WEST CENTRAL TEXAS REGIONAL WEATHER ROUNDUP
NATIONAL WEATHER SERVICE SAN ANGELO TX
200 AM CDT THU AUG 28 2014

NOTE: "FAIR" INDICATES FEW OR NO CLOUDS BELOW 12,000 FEET WITH NO
SIGNIFICANT WEATHER AND/OR OBSTRUCTIONS TO VISIBILITY.

TXZ049-054-064>066-071>073-076>078-098-099-113-114-127-128-139-140-
154-155-168>170-280800
...LOCATIONS ACROSS WEST CENTRAL TEXAS...

CITY           SKY/WX    TMP DP  RH WIND       PRES   REMARKS
SAN ANGELO     CLEAR     80  62  54 SE5       30.00F
ABILENE        CLEAR     80  61  52 SE13      30.02F
DYESS AFB      CLEAR     80  62  54 SE10      30.01S
JUNCTION       CLEAR     77  63  61 CALM      30.02S
SWEETWATER     CLEAR     79  61  52 SE10      30.05F
BROWNWOOD      MOCLDY    77  57  50 SE5       30.01F
COLEMAN        SUNNY     77  59  53 SE5       30.03S
SONORA         CLEAR     79  63  57 SE6       30.07F
OZONA          FAIR      79  61  53 SE3       30.05F
BRADY          CLEAR     75  59  57 E3        30.02S
$$

TEXAS PANHANDLE/OKLAHOMA PANHANDLE

CITY           SKY/WX    TMP DP  RH WIND       PRES   REMARKS
AMARILLO       CLEAR     70  63  78 S13       30.07F
BORGER         CLEAR     74  63  68 S15G23    30.02F
CANADIAN       CLEAR     76  67  76 S13G18    29.99F
DALHART        CLEAR     69  58  67 S14       30.08S
DUMAS          SUNNY     68  62  80 S12       30.06F
GUYMON         NOT AVBL
HEREFORD       SUNNY     68  63  83 S7        30.09F
PAMPA          SUNNY     69  62  78 S10       30.05F
PERRYTON       CLEAR     69  64  84 S9        30.01F
$$

SOUTHERN PANHANDLE/SOUTH PLAINS/ROLLING PLAINS

CITY           SKY/WX    TMP DP  RH WIND       PRES   REMARKS
LUBBOCK        CLOUDY    75  63  66 SE9       30.07F
SNYDER         CLEAR     81  62  51 SE10      30.04S
CHILDRESS      CLOUDY    80  65  59 S8        30.01F
SEMINOLE       MOSUNNY   76  59  55 E6        30.08S
$$

PERMIAN BASIN

CITY           SKY/WX    TMP DP  RH WIND       PRES   REMARKS
MIDLAND        CLEAR     81  60  48 SE12      30.03F
ODESSA         CLEAR     82  59  45 S10       30.04F
WINK           PTCLDY    83  59  44 SE8       30.00F
$$

FAR WEST/SOUTHWEST MOUNTAINS/TRANS PECOS

CITY           SKY/WX    TMP DP  RH WIND       PRES   REMARKS
ALPINE         MOSUNNY   68  55  62 CALM      30.20F
DRYDEN           N/A     87  60  40 SE12      30.00S
EL PASO        PTCLDY    73  62  68 E7        30.11S
FORT STOCKTON  PTCLDY    81  58  45 S9        30.04F
GUADALUPE PASS CLOUDY    72  55  55 W12       30.22F
MARFA          PTCLDY    63  55  77 N6        30.19F
PECOS          MOSUNNY   78  56  47 SW7       29.99F
$$

DALLAS/FORT WORTH METROPLEX

CITY           SKY/WX    TMP DP  RH WIND       PRES   REMARKS
DFW AIRPORT    CLEAR     78  61  55 SE3       29.98F
FTW MEACHAM    CLEAR     80  59  48 SE7       29.98F
DAL-EXECUTIVE  CLEAR     75  59  57 CALM      29.99S
GRAND PRAIRIE  CLEAR     80  56  44 SE3       30.00F
ADDISON        CLEAR     82  59  45 SE6       30.00F
MESQUITE       SUNNY     72  61  67 CALM      29.99S
LANCASTER      SUNNY     69  57  65 CALM      30.00S
$$

NORTH CENTRAL TEXAS

CITY           SKY/WX    TMP DP  RH WIND       PRES   REMARKS
SHRMAN/DENISON SUNNY     79  62  56 SE7       30.01S
GAINESVILLE    CLEAR     74  64  71 CALM      30.02F
BRIDGEPORT     SUNNY     78  59  52 S5        30.01F
DENTON         CLEAR     74  65  73 CALM      29.99S
WAXAHACHIE     SUNNY     72  58  62 CALM      30.00F
GRANBURY       SUNNY     79  60  51 SE3       30.00F
$$

WESTERN NORTH TEXAS

CITY           SKY/WX    TMP DP  RH WIND       PRES   REMARKS
WICHITA FALLS  CLEAR     78  64  61 S9        29.98F
VERNON         SUNNY     82  61  48 SE7       30.00
BRECKENRIDGE   SUNNY     82  56  42 SE9       29.99F
COMANCHE         N/A     74  60  61 S3        30.02F
$$

CENTRAL AND SOUTH CENTRAL TEXAS

CITY           SKY/WX    TMP DP  RH WIND       PRES   REMARKS
AUSTIN/BERGSTM PTCLDY    74  68  81 CALM      29.98S
WACO           CLEAR     76  64  66 SE7       29.99S
HILLSBORO      SUNNY     78  62  57 E8        29.99S
TEMPLE         CLEAR     77  61  57 SE3       29.99S
KILLEEN-GRAY   CLEAR     77  61  57 S6        30.01S
FORT HOOD      CLEAR     79  63  57 SE3       30.00F
GEORGETOWN     CLEAR     79  66  65 CALM      30.01F
LAGO VISTA     FAIR      78  67  69 SE3       30.02S
SAN MARCOS     CLEAR     75  63  64 CALM      30.00S
NEW BRAUNFELS  CLEAR     75  68  78 CALM      29.97S
RANDOLPH AFB   CLEAR     77  68  74 E3        29.99S
SAN ANTONIO    CLEAR     80  69  69 E7        29.99S
STINSON        CLEAR     80  69  69 E5        29.96S
PLEASANTON     NOT AVBL
LA GRANGE      CLEAR     79  73  82 E3        29.94F
GIDDINGS       SUNNY     75  69  80 CALM      30.01S
$$

EAST TEXAS

CITY           SKY/WX    TMP DP  RH WIND       PRES   REMARKS
PARIS          CLEAR     73  63  68 E7        30.01S
CLARKSVILLE    SUNNY     76  66  73 CALM      30.00F
TYLER          CLEAR     77  65  66 SE5       29.99F
LONGVIEW       CLEAR     74  66  76 CALM      29.99S
PALESTINE      SUNNY     76  70  79 CALM      30.00S
NACOGDOCHES    CLEAR     73  68  83 CALM      30.00S
$$

TEXAS HILL COUNTRY AND EDWARDS PLATEAU

CITY           SKY/WX    TMP DP  RH WIND       PRES   REMARKS
LLANO          SUNNY     75  59  57 SE5       30.04R
HORSESHOE BAY  FAIR      77  63  61 S6        30.01R
KERRVILLE      CLEAR     72  65  81 CALM      30.03S
FREDERICKSBRG  CLEAR     76  63  63 SE3       30.04S
ROCKSPRINGS    SUNNY     77  63  61 SE10      30.07S
HONDO            N/A    N/A N/A N/A MISG      30.00S
UVALDE         SUNNY     78  64  63 E3        29.98S
DEL RIO        CLEAR     86  63  45 E8        29.94F
$$

SOUTHEAST TEXAS

CITY           SKY/WX    TMP DP  RH WIND       PRES   REMARKS
COLLEGE STN    CLEAR     79  71  76 SE5       29.97F
CALDWELL       SUNNY     77  72  83 CALM      30.00F
CROCKETT       SUNNY     79  75  89 SE3       30.01F
BRENHAM        CLEAR     79  73  81 CALM      29.97F
HUNTSVILLE     CLEAR     76  71  85 CALM      29.98F
CONROE         CLEAR     73  71  93 CALM      29.98F
HOUSTON BUSH   PTCLDY    75  73  94 NW3       29.96S
HOUSTON HOBBY  PTCLDY    80  75  84 NE3       29.94F
PERLAND        PTCLDY    80  75  84 E10       29.96S
WHARTON        SUNNY     76  73  91 NE5       29.96S
$$

THE UPPER TEXAS COAST

CITY           SKY/WX    TMP DP  RH WIND       PRES   REMARKS
ORANGE         MOSUNNY   76  76 100 CALM      29.98S
PORT ARTHUR    PTCLDY    81  75  82 NE8       29.96S
GALVESTON      PTCLDY    85  76  74 E12       29.94F
ANGLETON       CLEAR     76  74  93 N5        29.93F
BAY CITY       SUNNY     79  79 100 NE3       29.93F
$$

TEXAS COASTAL BEND, RIO GRANDE PLAINS DEEP SOUTH TEXAS

CITY           SKY/WX    TMP DP  RH WIND       PRES   REMARKS
VICTORIA       CLEAR     80  76  87 NE7       29.94S
BEEVILLE       FAIR      80  74  82 E7        29.92F
ROCKPORT       PTCLDY    83  78  85 NE14      29.90F
PORT ARANSAS   MOSUNNY   82  77  83 E12       29.90S
PORT LAVACA    SUNNY     79  76  91 NE9       29.91F
CORPUS CHRISTI PTCLDY    84  75  74 E15       29.89F
KINGSVILLE NAS CLEAR     83  77  82 NE8       29.89F
COTULLA        CLEAR     82  68  62 SE6       29.95F
LAREDO         CLEAR     83  71  66 E6        29.96F
BROWNSVILLE    MOCLDY    82  78  88 NW8       29.87F
PORT ISABEL    PTCLDY    83  77  82 N5        29.86F
HEBBRONVILLE   SUNNY     79  70  73 E3        29.95S
MCALLEN        CLEAR     82  76  81 N6        29.90F
WESLACO        CLEAR     80  73  80 CALM      29.88F
FALFURRIAS     SUNNY     78  70  76 CALM      29.90F
EDINBURG       MOSUNNY   81  74  79 N3        29.90S
$$



USA.gov is the U.S. government's official web portal to all federal, state and local government web resources and services.